Powrót do katalogu

STARLINK-2502

AktywnyŁącznośćVLEO
NORAD 48327·PAYLOAD·🇺🇸 United States

Wystrzelony Apr 29, 2021 z Cape Canaveral Space Force Station

Loading…

Następne Przeloty (najbliższe 24 godziny)

TLE

ŚwieżeSource: CelesTrak SupGP

Epoka: Sep 14, 2026, 20:58 UTC

1 48327C 21036BD  26257.87409722 -.00000518  00000+0 -16673-4 0  2576
2 48327  53.1577 300.6839 0001370  85.3165 141.8181 15.31700454    17

Śledź STARLINK-2502 w czasie rzeczywistym z AllMySat

Download on the App Store